KD8UYA Weather Reports


time (UTC)temp
C
wind
direction
speed
KPH
gust
KPH
rain 1hr
cm
rain 24hr
cm
rain mn
cm
humidity
%
barometer
mb
20260506103045 6 306 3.2 9.7 0.03 3.00 0.81 98 1005.9
20260506101537 6 39 0.0 4.8 0.05 3.00 0.81 98 1005.4
20260506100035 6 58 1.6 4.8 0.10 3.00 0.81 98 1004.8
20260506094535 6 28 3.2 11.3 0.10 3.00 0.81 97 1005.5
20260506093032 7 291 1.6 9.7 0.08 2.97 0.79 98 1006.1
20260506091530 7 347 4.8 14.5 0.08 2.92 0.76 98 1006.0
20260506090029 7 326 0.0 9.7 0.08 2.87 0.71 98 1005.6
20260506084603 7 15 0.0 4.8 0.10 2.87 0.71 98 1005.6
20260506083027 6 29 0.0 8.0 0.15 2.87 0.71 97 1005.4
20260506081536 6 355 0.0 8.0 0.15 2.84 0.69 97 1005.6
20260506073021 7 58 1.6 8.0 0.18 2.74 0.56 97 1005.4
20260506071519 7 333 0.0 6.4 0.13 2.69 0.51 97 1005.1
20260506061514 7 23 0.0 3.2 0.25 2.57 0.38 97 1005.4
20260506044503 7 16 4.8 8.0 0.13 2.26 0.08 97 1005.7
20260506043100 7 33 1.6 9.7 0.15 2.24 0.05 97 1005.8
20260506041607 8 9 1.6 16.1 0.18 2.21 0.03 97 1005.9
20260506040055 8 51 3.2 9.7 0.20 2.18 0.00 97 1006.0
20260506034555 8 350 1.6 4.8 0.20 2.13 2.13 98 1006.2
20260506033050 8 38 1.6 6.4 0.25 2.08 2.08 98 1006.2
20260506031549 8 48 1.6 6.4 0.30 2.03 2.03 97 1006.2
20260506030047 8 321 0.0 0.0 0.30 1.98 1.98 98 1006.5
20260506024546 8 321 0.0 0.0 0.33 1.93 1.93 98 1006.6
20260506023100 8 322 0.0 0.0 0.30 1.83 1.83 97 1006.1
20260506021605 8 39 0.0 8.0 0.30 1.73 1.73 97 1006.0
20260506020041 8 42 1.6 6.4 0.38 1.68 1.68 97 1005.6
20260506014540 8 30 3.2 6.4 0.38 1.60 1.60 97 1005.6
20260506013039 8 39 3.2 8.0 0.43 1.50 1.50 97 1005.7
20260506011540 9 76 0.0 3.2 0.36 1.40 1.40 97 1005.6
20260506010038 9 77 0.0 8.0 0.25 1.30 1.30 97 1005.4
20260506004536 8 92 0.0 6.4 0.18 1.22 1.22 97 1005.2
20260506003037 8 90 1.6 6.4 0.08 1.07 1.07 97 1005.1
20260506001536 9 90 1.6 4.8 0.10 1.04 1.04 97 1005.0
20260506000033 9 29 3.2 8.0 0.20 1.04 1.04 96 1005.0
20260505234530 9 32 1.6 9.7 0.53 1.04 1.04 96 1004.9
20260505233028 10 26 3.2 9.7 0.58 0.99 0.99 96 1004.9
20260505231541 10 5 3.2 4.8 0.56 0.94 0.94 96 1005.2
20260505230026 10 337 3.2 8.0 0.51 0.84 0.84 96 1005.2
20260505224520 11 338 3.2 12.9 0.15 0.48 0.48 96 1005.3
20260505223018 12 46 8.0 17.7 0.08 0.41 0.41 94 1004.6
20260505221514 13 307 0.0 4.8 0.08 0.38 0.38 96 1004.6
20260505220012 13 308 0.0 8.0 0.05 0.33 0.33 96 1004.7
20260505214512 13 273 1.6 6.4 0.23 0.33 0.33 96 1004.6
20260505213017 13 279 0.0 11.3 0.28 0.33 0.33 96 1004.6
20260505211513 13 237 3.2 9.7 0.28 0.30 0.30 95 1004.6
20260505210013 13 260 4.8 12.9 0.25 0.28 0.28 94 1004.7
20260505204506 13 288 4.8 11.3 0.08 0.10 0.10 93 1004.7
20260505203125 14 300 0.0 8.0 0.08 0.08 0.08 93 1004.4
20260505201501 14 309 3.2 14.5 0.03 0.03 0.03 91 1004.7
20260505200059 15 302 4.8 12.9 0.03 0.03 0.03 89 1004.5
20260505194557 15 287 6.4 12.9 0.03 0.03 0.03 86 1004.5
20260505193055 16 249 4.8 14.5 0.00 0.00 0.00 82 1004.6
20260505191608 17 293 4.8 14.5 0.00 0.00 0.00 80 1004.5
20260505190055 17 229 6.4 14.5 0.00 0.00 0.00 78 1004.7
20260505184555 17 256 3.2 14.5 0.00 0.00 0.00 78 1004.8
20260505183053 17 247 8.0 16.1 0.00 0.00 0.00 76 1004.9
20260505181552 17 306 9.7 24.1 0.00 0.00 0.00 75 1004.9
20260505180053 17 284 3.2 16.1 0.00 0.00 0.00 76 1004.8
20260505174550 17 269 6.4 27.4 0.00 0.00 0.00 75 1004.7
20260505173055 17 266 8.0 22.5 0.00 0.00 0.00 74 1004.5
20260505171550 17 280 11.3 22.5 0.00 0.00 0.00 72 1004.6
20260505170103 17 277 8.0 17.7 0.00 0.00 0.00 72 1004.5
20260505164547 18 270 11.3 22.5 0.00 0.00 0.00 71 1004.5
20260505163044 18 236 14.5 29.0 0.00 0.00 0.00 70 1004.5
20260505161643 18 288 11.3 24.1 0.00 0.00 0.00 69 1004.5
20260505153037 18 297 12.9 27.4 0.00 0.00 0.00 67 1003.6
20260505151553 18 257 8.0 20.9 0.00 0.00 0.00 68 1003.5
20260505124526 15 171 4.8 19.3 0.00 0.00 0.00 81 1003.7
20260505123025 15 268 3.2 16.1 0.00 0.00 0.00 81 1003.4
20260505121523 15 269 6.4 24.1 0.00 0.00 0.00 80 1003.2
20260505120020 15 254 11.3 25.7 0.00 0.00 0.00 79 1002.7
20260505114519 15 275 9.7 19.3 0.00 0.00 0.00 80 1002.3
20260505113020 15 239 4.8 30.6 0.00 0.00 0.00 82 1002.2
20260505111513 15 222 6.4 20.9 0.00 0.00 0.00 80 1002.5